[[{"header":{"parameterUnit":"m.s-1","parameterCategory":1,"la1":30.2991,"la2":30.254,"lo1":-89.0895,"lo2":-89.0444,"dy":0.0017,"dx":0.0017,"nx":28,"ny":28,"refTime":"2024-03-26T03:00:00:Z","depth":0,"parameterNumber":2,"parameterNumberName":"U-component_of_WINDS"},"data":[0,0,0,0,0,0,0,0,0,0,0,0,0,0,0,0,0,0,0,0,0,0,0,0,0,0,0,0,0,0,0,0,0,0,0,0,0,0,0,0,0,0,0,0,0,0,0,0,0,0,0,0,0,0,0,0,0,0,-4.0265,-4.0268,0,-4.059,-4.0594,-4.0598,-4.0743,-4.0742,-4.0742,-4.0741,-4.108,-4.1089,-4.1098,0,0,0,0,0,0,0,0,0,0,0,0,0,-3.9774,-3.9783,-4.0264,-4.0268,-4.0272,-4.059,-4.0594,-4.0599,-4.0743,-4.0742,-4.0742,-4.0741,-4.1077,-4.1088,-4.1099,0,0,0,0,0,0,0,0,0,0,0,0,0,-4.0032,-3.9785,-4.0264,-4.0383,-4.0396,-4.0589,-4.0594,-4.06,-4.0743,-4.0742,-4.0742,-4.0741,-4.1073,-4.1087,-4.11,-4.12,0,0,-4.1144,-4.115,0,0,0,0,0,0,0,0,-4.0017,-4.005,-4.0361,-4.0375,-4.0391,-4.0625,-4.0546,-4.0801,-4.0743,-4.0611,-4.0741,-4.0741,-4.0929,-4.0955,-4.1018,-4.1216,-4.1231,-4.1145,-4.1153,-4.1159,-4.1163,0,0,0,0,0,0,0,-3.9999,-4.0037,-4.0394,-4.0365,-4.0384,-4.0422,-4.0458,-4.0595,-4.077,-4.0623,-4.0634,-4.0671,-4.0937,-4.1004,-4.1027,-4.1236,-4.1144,-4.1157,-4.1166,-4.1171,-4.1536,-4.1537,0,0,0,0,0,0,-3.9961,-4.0021,-4.0383,-4.0403,-4.0198,-4.0431,-4.0471,-4.0551,-4.0769,-4.0802,-4.0671,-4.0676,-4.098,-4.101,-4.1039,-4.1172,-4.1159,-4.1173,-4.1181,-4.1535,-4.1536,-4.1538,0,0,0,0,0,0,-3.995,-3.9992,-4.037,-4.0215,-4.0266,-4.044,-4.0528,-4.0557,-4.0624,-4.0805,-4.0838,-4.0706,-4.0981,-4.1019,-4.116,-4.1186,-4.1179,-4.1192,-4.1533,-4.1535,-4.1537,-4.1437,0,0,0,0,0,0,-3.9935,-3.9987,-4.0025,-4.0215,-4.0274,-4.0482,-4.053,-4.0564,-4.0647,-4.0657,-4.0847,-4.0878,-4.0983,-4.1138,-4.1174,-4.1205,-4.1203,-4.1532,-4.1534,-4.1536,-4.1439,-4.1436,-4.1433,0,0,0,0,0,-3.9917,-3.9985,-4.0026,-4.0069,-4.0325,-4.0484,-4.0518,-4.0636,-4.0649,-4.069,-4.0807,-4.0872,-4.1177,-4.1151,-4.1192,-4.1229,-4.1531,-4.1533,-4.1536,-4.1441,-4.1436,-4.1433,0,0,0,0,0,0,-3.9794,-4.0011,-4.006,-4.019,-4.0317,-4.0508,-4.0563,-4.0628,-4.0755,-4.0759,-4.0903,-4.0944,-4.1072,-4.1165,-4.1132,-4.1339,-4.136,-4.1371,-4.1273,-4.1271,-4.1267,-4.1242,-4.1214,0,0,0,0,0,-3.9782,-3.9891,-4.0076,-4.0173,-4.0234,-4.0387,-4.0461,-4.0541,-4.0679,-4.0734,-4.0861,-4.0994,-4.1121,-4.1201,-4.1327,-4.1454,-4.1498,-4.15,-4.1496,-4.1493,-4.1501,-4.1577,-4.158,-4.1547,-4.1547,-4.1547,0,0,-3.9758,-3.989,-3.9951,-4.0152,-4.0259,-4.0371,-4.0431,-4.0546,-4.0632,-4.0752,-4.0892,-4.099,-4.1149,-4.1283,-4.1348,-4.1364,-4.152,-4.1496,-4.1492,-4.1502,-4.158,-4.1583,-4.1586,-4.1549,-4.1548,-4.1548,0,0,-3.9772,-3.9882,-3.9976,-4.0083,-4.0245,-4.0347,-4.0369,-4.0551,-4.062,-4.0763,-4.0856,-4.0961,-4.1175,-4.1285,-4.1368,-4.1426,-4.1492,-4.1464,-4.1447,-4.1519,-4.1522,-4.1525,-4.1547,-4.1553,-4.1471,-4.1471,-4.1471,0,-3.9722,-3.9892,-4.0017,-4.0127,-4.0214,-4.0328,-4.0425,-4.0524,-4.0719,-4.0778,-4.0792,-4.1065,-4.1179,-4.1342,-4.1356,-4.142,-4.1452,-4.1442,-4.1511,-4.1516,-4.152,-4.1543,-4.1551,-4.1467,-4.1467,-4.1467,-4.1468,0,-3.9825,-3.9941,-3.9998,-4.0183,-4.0277,-4.038,-4.0522,-4.0602,-4.0675,-4.0776,-4.0922,-4.1063,-4.1221,-4.1266,-4.1338,-4.144,-4.1445,-4.1483,-4.1507,-4.1517,-4.1541,-4.1551,-4.146,-4.1462,-4.1463,-4.1464,0,0,-3.9769,-4.0022,-4.0041,-4.0127,-4.0315,-4.0409,-4.0519,-4.0672,-4.0739,-4.0871,-4.0969,-4.1148,-4.1186,-4.1281,-4.1368,-4.1431,-4.147,-4.1463,-4.1469,-4.146,-4.1593,-4.1562,-4.157,-4.1515,-4.1517,-4.1519,-4.158,0,-3.9809,-4.0009,-4.0125,-4.0278,-4.0389,-4.05,-4.0596,-4.0723,-4.0821,-4.0932,-4.1041,-4.1166,-4.1206,-4.1264,-4.1332,-4.145,-4.1499,-4.1448,-4.1609,-4.1613,-4.1565,-4.1583,-4.1551,-4.1601,-4.159,-4.1591,-4.1593,0,-3.9883,-4.0011,-4.0174,-4.0352,-4.0403,-4.0487,-4.0638,-4.0741,-4.0889,-4.0957,-4.1063,-4.115,-4.1273,-4.1288,-4.1461,-4.1424,-4.1498,-4.1566,-4.1571,-4.1591,-4.1603,-4.1603,-4.162,-4.1627,-4.1608,-4.1607,-4.1606,0,-3.9827,-4.0041,-4.0167,-4.0237,-4.0447,-4.0504,-4.0595,-4.0742,-4.0827,-4.096,-4.1018,-4.1163,-4.1243,-4.1355,-4.1481,-4.1479,-4.1642,-4.1667,-4.1703,-4.17,-4.1732,-4.1728,-4.1761,-4.1778,-4.1778,-4.1778,-4.1778,0,-3.986,-3.9956,-4.0145,-4.0222,-4.0334,-4.0468,-4.0576,-4.0676,-4.0806,-4.0907,-4.1013,-4.1106,-4.1265,-4.1378,-4.1477,-4.1607,-4.1642,-4.1702,-4.1727,-4.1692,-4.1685,-4.1742,-4.1742,-4.178,-4.178,-4.1779,-4.1779,0,-3.9816,-3.9946,-4.0091,-4.0278,-4.0328,-4.0402,-4.0564,-4.0645,-4.0748,-4.0875,-4.0913,-4.1076,-4.1216,-4.1351,-4.1539,-4.1606,-4.1735,-4.1768,-4.1684,-4.1698,-4.1727,-4.1722,-4.1798,-4.1815,-4.1818,-4.1818,-4.1818,0,-3.9829,-3.9905,-4.01,-4.0175,-4.0262,-4.0381,-4.0468,-4.0604,-4.0692,-4.0867,-4.0927,-4.1074,-4.1199,-4.1416,-4.1554,-4.1698,-4.1736,-4.1753,-4.1759,-4.1722,-4.1738,-4.1732,-4.1741,-4.1749,-4.1748,-4.1748,-4.1747,0,-3.9838,-3.9899,-4.002,-4.0164,-4.0265,-4.0386,-4.051,-4.0566,-4.0726,-4.0819,-4.0962,-4.1059,-4.125,-4.1395,-4.1556,-4.1653,-4.1727,-4.1744,-4.1761,-4.1726,-4.1675,-4.1704,-4.1674,-4.1742,-4.1742,-4.1743,-4.1743,-4.1743,-3.9825,-3.9898,-4.0047,-4.0179,-4.0287,-4.0401,-4.0486,-4.0601,-4.0722,-4.0886,-4.096,-4.1105,-4.1254,-4.1477,-4.1573,-4.169,-4.1708,-4.1731,-4.1738,-4.1741,-4.1734,-4.1655,-4.1719,-4.172,-4.172,-4.172,-4.1721,0,-3.984,-3.9942,-4.0061,-4.0232,-4.0336,-4.0396,-4.0537,-4.0621,-4.0746,-4.0878,-4.0999,-4.1164,-4.1306,-4.1454,-4.1606,-4.1671,-4.1709,-4.1706,-4.1703,-4.1724,-4.1708,-4.1679,-4.1672,-4.1672,-4.1672,-4.1672,-4.1672,-4.1672,-3.9861,-3.9989,-4.0067,-4.0251,-4.0353,-4.0494,-4.057,-4.0677,-4.0783,-4.0962,-4.108,-4.1175,-4.1315,-4.1477,-4.1611,-4.1652,-4.1703,-4.169,-4.174,-4.1722,-4.1725,-4.1728,-4.1702,-4.17,-4.17,-4.1747,-4.1747,-4.1747]},{"header":{"parameterUnit":"m.s-1","parameterCategory":1,"la1":30.2991,"la2":30.254,"lo1":-89.0895,"lo2":-89.0444,"dy":0.0017,"dx":0.0017,"nx":28,"ny":28,"refTime":"2024-03-26T03:00:00:Z","depth":0,"parameterNumber":3,"parameterNumberName":"V-component_of_WINDS"},"data":[0,0,0,0,0,0,0,0,0,0,0,0,0,0,0,0,0,0,0,0,0,0,0,0,0,0,0,0,0,0,0,0,0,0,0,0,0,0,0,0,0,0,0,0,0,0,0,0,0,0,0,0,0,0,0,0,0,0,9.8986,9.8987,0,9.9127,9.9129,9.9131,9.9059,9.9055,9.9051,9.9048,9.919,9.9197,9.9204,0,0,0,0,0,0,0,0,0,0,0,0,0,9.8651,9.8658,9.8985,9.8987,9.8989,9.9127,9.9129,9.9131,9.9059,9.9055,9.905,9.9046,9.9188,9.9196,9.9205,0,0,0,0,0,0,0,0,0,0,0,0,0,9.8795,9.866,9.8985,9.897,9.897,9.9127,9.9129,9.9131,9.906,9.9055,9.9049,9.9044,9.9185,9.9195,9.9206,9.9385,0,0,9.9239,9.9244,0,0,0,0,0,0,0,0,9.8787,9.8807,9.897,9.8971,9.8972,9.907,9.9063,9.9216,9.9062,9.9026,9.9047,9.9041,9.9154,9.9167,9.9206,9.9392,9.9398,9.924,9.9247,9.9252,9.9255,0,0,0,0,0,0,0,9.8777,9.8801,9.9041,9.8973,9.8974,9.8956,9.897,9.9092,9.912,9.9029,9.9024,9.9042,9.9154,9.9196,9.9209,9.94,9.924,9.925,9.9257,9.9261,9.9742,9.9748,0,0,0,0,0,0,9.8768,9.8793,9.9037,9.9046,9.8864,9.8966,9.8982,9.9044,9.9118,9.9124,9.9046,9.9038,9.918,9.9196,9.9214,9.943,9.9252,9.9262,9.9268,9.9736,9.9743,9.975,0,0,0,0,0,0,9.8761,9.879,9.9031,9.8918,9.8947,9.8978,9.9048,9.9049,9.9092,9.9132,9.9136,9.9085,9.9176,9.9198,9.9344,9.9434,9.9267,9.9277,9.9728,9.9738,9.9747,9.9863,0,0,0,0,0,0,9.8752,9.8788,9.8857,9.892,9.8954,9.916,9.9053,9.9056,9.9111,9.9101,9.9169,9.9174,9.9174,9.9328,9.9355,9.9446,9.9285,9.972,9.9733,9.9744,9.9851,9.9875,9.9896,0,0,0,0,0,9.874,9.8883,9.8861,9.8891,9.904,9.9165,9.9184,9.9181,9.9119,9.9188,9.9214,9.9172,9.942,9.9343,9.9373,9.9469,9.9715,9.9729,9.9743,9.9842,9.9871,9.9895,0,0,0,0,0,0,9.8828,9.8891,9.8867,9.9035,9.9096,9.9153,9.924,9.9212,9.9291,9.9278,9.927,9.9286,9.9438,9.9467,9.9381,9.9647,9.9557,9.9578,9.9622,9.965,9.9672,9.9662,9.9294,0,0,0,0,0,9.8867,9.8964,9.9013,9.9157,9.9188,9.9209,9.9263,9.9256,9.9318,9.9343,9.9379,9.9441,9.9532,9.9592,9.9679,9.9855,9.9869,9.9935,9.9958,9.9976,9.9994,10.0091,10.0122,9.9796,9.9796,9.9796,0,0,9.8949,9.8995,9.9056,9.9176,9.9222,9.9322,9.9231,9.9341,9.9415,9.9359,9.95,9.9529,9.9596,9.9759,9.9832,9.9788,10.0087,9.9994,10.0008,10.0016,10.0109,10.014,10.0167,9.9806,9.9804,9.9803,0,0,9.9149,9.9193,9.9319,9.9367,9.9439,9.9452,9.9482,9.9545,9.9562,9.9703,9.9664,9.9752,9.9909,9.996,10.0006,10.0228,10.0194,10.0256,10.0373,10.0468,10.0493,10.0516,10.0597,10.0626,10.0274,10.0274,10.0275,0,9.9241,9.9392,9.9386,9.95,9.9554,9.951,9.9637,9.9684,9.978,9.9818,9.9768,9.9966,10.0008,10.0183,10.0237,10.0275,10.031,10.0249,10.049,10.0513,10.0534,10.0611,10.0642,10.0282,10.0281,10.028,10.0279,0,9.9502,9.9608,9.97,9.9796,9.986,9.998,9.9993,10.0058,10.0046,10.0064,10.0209,10.0259,10.0355,10.0396,10.0383,10.0569,10.054,10.0491,10.0401,10.0573,10.0645,10.0674,10.0292,10.0289,10.0287,10.0285,0,0,9.9762,9.9855,9.9889,9.9933,10.0009,10.009,10.0208,10.0304,10.0361,10.0429,10.0528,10.0663,10.0619,10.0671,10.0664,10.0748,10.0923,10.0688,10.0689,10.0731,10.1133,10.1171,10.1205,10.09,10.0905,10.091,10.1128,0,9.9969,10.0177,10.0177,10.0369,10.0467,10.0426,10.0529,10.0588,10.0608,10.0694,10.0716,10.0813,10.0745,10.0777,10.0858,10.0884,10.1003,10.0868,10.0993,10.0997,10.0979,10.1243,10.1284,10.1487,10.1156,10.116,10.1164,0,10.0238,10.0317,10.052,10.0584,10.0625,10.0718,10.0807,10.0889,10.0954,10.0964,10.1024,10.1005,10.1125,10.1031,10.1197,10.1105,10.1156,10.1177,10.1185,10.1198,10.1092,10.1265,10.1551,10.1583,10.1208,10.1205,10.1201,0,10.041,10.0567,10.0709,10.0747,10.0825,10.0892,10.0927,10.0987,10.1045,10.1122,10.116,10.125,10.1299,10.1369,10.1375,10.1305,10.1543,10.1449,10.1555,10.1555,10.1608,10.1605,10.1909,10.1638,10.1637,10.1637,10.1636,0,10.0643,10.0769,10.0787,10.0875,10.1015,10.1013,10.1152,10.1181,10.1235,10.1328,10.1297,10.1384,10.1386,10.1475,10.148,10.1618,10.164,10.1651,10.1651,10.1655,10.1654,10.1689,10.1676,10.1645,10.1643,10.1641,10.164,0,10.0859,10.0876,10.1029,10.1091,10.1109,10.121,10.1263,10.1346,10.1364,10.1482,10.151,10.1538,10.1642,10.1654,10.1774,10.1778,10.1945,10.1929,10.1924,10.1922,10.2028,10.2019,10.2367,10.2413,10.211,10.2113,10.2115,0,10.1007,10.1103,10.1176,10.1237,10.1277,10.1374,10.1434,10.1436,10.1499,10.1582,10.1656,10.1757,10.1838,10.2006,10.2037,10.2129,10.2116,10.2232,10.213,10.2131,10.212,10.2116,10.2126,10.2252,10.2255,10.2258,10.226,0,10.1268,10.1273,10.1361,10.1454,10.1527,10.1599,10.1667,10.1718,10.1728,10.1801,10.1908,10.1971,10.2095,10.2196,10.2288,10.2323,10.2295,10.2292,10.2322,10.2328,10.2322,10.2329,10.198,10.2284,10.2282,10.228,10.2279,10.2278,10.1456,10.1541,10.1607,10.1707,10.1758,10.1823,10.1906,10.1935,10.2024,10.2127,10.2121,10.224,10.2303,10.2423,10.2466,10.2558,10.252,10.2562,10.2573,10.2585,10.2596,10.2306,10.2574,10.2573,10.2573,10.2572,10.2572,0,10.1718,10.1759,10.1851,10.1948,10.2027,10.1994,10.2068,10.2136,10.2241,10.2303,10.2384,10.2508,10.2606,10.2646,10.2742,10.2808,10.2798,10.2834,10.283,10.2839,10.2624,10.259,10.2841,10.2841,10.2841,10.2841,10.2841,10.2841,10.1864,10.2007,10.2019,10.2187,10.2226,10.2343,10.2389,10.2448,10.2499,10.2638,10.2721,10.2746,10.28,10.29,10.2989,10.2998,10.3036,10.3078,10.3082,10.2881,10.2853,10.2828,10.2795,10.3086,10.3086,10.3289,10.3291,10.3292]}]]